Погода в Малом Окуневе

Россия / Курганская область     55°28′10″N   63°34′41″E
темп.,
°C
ветер,
м/с
пор.,
м/с
влажн.,
%
обл.,
%
осадки,
мм/ч
давл.,
гПа
погр.,
м
17 мая, пн
пн1723:00+21зюз49475 0.0 1018128
02:00+19зюз495065 0.0 1018143
05:00+18юз475699 0.0 101992
08:00+24зюз454373 0.0 1018225
11:00+29з46311 0.0 1018985
14:00+31зюз69239 0.0 10163568
17:00+25зюз9144068 0.0 1016401
20:00+22юз5105185 0.0 1015184
18 мая, вт
вт1823:00+20сз71552100 0.3 1016443
02:00+16з3383100 1.2 101529
05:00+16зюз4976100 1.6 1015179
08:00+20зсз61367100 0.1 1014605
11:00+24сз684946 0.1 10131362
14:00+27ссз683649 0.0 10133024
17:00+21с8105895 0.1 1015764
20:00+18ссв811675 0.1 1016888
19 мая, ср
ср1923:00+13ссв7117691 0.1 1020736
02:00+13ссв6871100 0.0 1021983
05:00+10ссв6127619 0.0 1023555
08:00+13св68635 0.0 1024753
11:00+16св67450 0.0 10241412
14:00+19св56385 0.0 10231702
17:00+20св45365 0.0 10231751
20:00+17всв22512 0.0 102316
20 мая, чт
чт2023:00+13ссв11575 0.0 102411
02:00+11юв116165 0.0 102410
05:00+10юз11635 0.0 102510
08:00+16з335155 0.0 1025308
11:00+20зсз333880 0.0 10241294
14:00+23зсз33328 0.0 10231665
17:00+24зсз33315 0.0 10221718
20:00+20зюз22463 0.0 102113
21 мая, пт
пт2123:00+16зюз33485 0.0 102135
02:00+15зюз34514 0.0 102150
05:00+13зюз33565 0.0 102237
08:00+19зюз34465 0.0 1022240
11:00+24зюз33335 0.0 1021969
14:00+27зюз33285 0.0 10201789
17:00+27зюз33261 0.0 10191871
20:00+22зюз22415 0.0 102015